Uniontown, PA (15401)

6:44 AM EST on January 26, 2015 (GMT -0500)
Nick's Weather | Change Station
CLOSE
Current Station
Personal Weather Station
Location: Uniontown, PA
Elevation: 1060 ft
Nearby Weather Stations

Elev 1060 ft 39.90 °N, 79.74 °W | Updated 1 second ago

Ice Pellets
Ice Pellets
36.8 °F
Feels Like 37 °F
N
0.0
Wind Variable Wind from ESE
Gusts 4.0 mph

Today
High -- | Low -- °F
--% Chance of Precip.
Yesterday
High -- | Low -- °F
Precip. -- in
7:32 AM 5:31 PM
Waxing Crescent, 42% visible
Pressure 29.67 in
Visibility 10.0 miles
Clouds Overcast 2000 ft
Windchill 37 °F
Dew Point 33 °F
Humidity 87%
Rainfall 0.15 in
Snow Depth Not available.
UV 0 out of 12
Pollen .10 out of 12
Air Quality Not available.
Flu Activity Not available.
METAR KMGW 261053Z AUTO 12005KT 10SM UP OVC020 02/M01 A2964 RMK AO2 SLP046 P0001 T00221006 TSNO

More Conditions Fewer Conditions

Pressure 29.67 in
Visibility 10.0 miles
Clouds Overcast 2000 ft
Windchill 37 °F
Dew Point 33 °F
Humidity 87%
Rainfall 0.15 in
Snow Depth Not available.
UV 0 out of 12
Pollen .10 out of 12
Air Quality Not available.
Flu Activity Not available.
METAR KMGW 261053Z AUTO 12005KT 10SM UP OVC020 02/M01 A2964 RMK AO2 SLP046 P0001 T00221006 TSNO

More Conditions Fewer Conditions

10-Day Weather Forecast

Almanac

Astronomy

Jan. 26, 2015 Rise Set
Actual Time
Civil Twilight
Nautical Twilight
Astronomical Twilight
Moon
Length of Visible Light
Length of Day
Tomorrow will be .
, % of the Moon is Illuminated

Today's Extremes

State Highs State Lows

Community

WunderPhotos

Upload Photos

1,790,172 photos uploaded!

WunderBlogs® & News

Nearby

Air Quality

  Air Quality AQ Index Pollutant
Not available.

Snow Depth

Station Depth Elevation

Earthquake Activity

City Distance Mag. Time & Date
Minimum magnitude displayed is 2.5.

Coastal Water Temperatures

Place Temperature

Nearby Weather Stations